Find SRMSAT

NORAD ID: 37841 Int'l Des: 2011-058 Owner: SRMU Country: IN operational
LEOCIRCULAR

Live Position

Loading 3D Globe...

About SRMSAT

Description loading...

Upcoming Passes

Passes for default location (London). Set your location on the main map for personalized predictions.

Altitude History

Loading altitude history...

Two-Line Element Set

1 37841U 11058D 26104.61807969 .00000358 00000-0 50572-4 0 9996
2 37841 19.9717 84.2347 0011634 223.7287 292.4419 14.11560239748825
Epoch: Apr 14, 2026 • Age: 12 hours

Current Status

Altitude 847.0 km
Velocity 7.43 km/s
Sub-Earth Point 3.39°N, 6.97°E
Launch Date Oct 12, 2011
Age 14.5 years
Type other

Technical Details

Classification Payload
Mass 10.00 kg
Dry Mass 10.00 kg
Total Mass 10.00 kg
Length 0.30 m
Diameter 0.30 m
Span 0.30 m
Shape Box
Manufacturer SRMU
Bus Type SRMSAT
Phase Status In Orbit
Owner/State SRMU/IN

Most Searched